ORBCOMM FM117

Last updated on Thu Aug 20 2026 00:03:08 GMT+0000 (Coordinated Universal Time)

1 41188U 15081K 26231.05337730 .00000224 00000+0 83517-4 0 9994 2 41188 46.9999 243.5682 0002030 157.8440 202.2534 14.58934323569307
UTC large
Height (km)
Speed (km/s)
/
Latitude / Longitude
Inclination (degrees)
Orbital Period (minutes)
Azimuth
Elevation
Range (km)
Doppler Factor

Next 0 passes for location: London (51.5072 / 0.1276)

No passes found over London.
ORBCOMM FM117